Regional Weather Roundup
Issued by NWS Albany, NY

Home | Current Version | Previous Version | Text Only | Print | Product List | Glossary On
Versions: 1 2 3 4 5 6 7 8 9 10 11 12 13 14 15 16 17 18 19 20 21 22 23 24 25 26 27 28 29 30 31 32 33 34 35 36 37 38 39 40 41 42 43 44 45 46 47 48 49 50
000
ASUS41 KALY 300710
RWRALY

NEW YORK STATE HOURLY WEATHER ROUNDUP
NATIONAL WEATHER SERVICE ALBANY NY
300 AM EDT MON MAR 30 2015

NOTE: "FAIR" INDICATES FEW OR NO CLOUDS BELOW 12,000 FEET WITH NO
SIGNIFICANT WEATHER AND/OR NO OBSTRUCTIONS TO VISIBILITY.

NYZ032-033-038>043-046>054-057>066-NYZ062>081-300800-
EAST


CITY           SKY/WX    TMP DP  RH WIND       PRES   REMARKS
ALBANY         CLOUDY    36  11  35 S12       29.91F WCI  28
GLENS FALLS    CLOUDY    32  11  41 CALM      29.89F
POUGHKEEPSIE   CLOUDY    37  12  35 S3        29.99F
NEWBURGH       CLOUDY    36  12  38 MISG      30.00F
MONTGOMERY     CLOUDY    33  13  43 S5        29.97F WCI  29
WHITE PLAINS   MOCLDY    35  12  38 S3        30.01F
ISLIP          PTCLDY    37  23  56 SW10      30.04F WCI  30
NEW YORK CITY  MOCLDY    39  10  30 S12       30.05F WCI  32
CENTRAL PARK   MOCLDY    39  11  31 VRB5G17   30.06F
$$

NYZ005>009-017-018-044>046-055-056-300800-
CENTRAL


CITY           SKY/WX    TMP DP  RH WIND       PRES   REMARKS
FULTON         FLURRIES  36  27  69 SE5       29.78F WCI  32
SYRACUSE       FLURRIES  37  24  59 S14       29.82F WCI  28
ROME           LGT SNOW  31  30  96 S8        29.89F VSB 1   WCI  23
ELMIRA         CLOUDY    39  14  36 SW17G25   29.81F WCI  30
BINGHAMTON     LGT SNOW  32  21  64 S15G33    29.83F WCI  22
MONTICELLO     CLOUDY    32  10  40 SW8       29.95F WCI  25
$$

NYZ026>034-041>043-300800-
NORTH


CITY           SKY/WX    TMP DP  RH WIND       PRES   REMARKS
WATERTOWN      CLOUDY    37  26  64 S12G21    29.75F WCI  29
FORT DRUM      NOT AVBL
MASSENA        CLOUDY    37  15  40 SW10      29.76F WCI  30
SARANAC LAKE   CLOUDY    31  10  41 SW13      29.73F WCI  21
PLATTSBURGH    CLOUDY    34  13  41 S7        29.81F WCI  28
$$

NYZ001>004-010>016-019>021-300800-
WEST


CITY           SKY/WX    TMP DP  RH WIND       PRES   REMARKS
NIAGARA FALLS  LGT RAIN  36  31  82 SW23G32   29.66F WCI  24
BUFFALO        FLURRIES  38  28  67 SW24G37   29.68F WCI  27
DUNKIRK        LGT RAIN  38  33  82 SW20G30   29.71F WCI  28
JAMESTOWN      CLOUDY    34  30  86 S10       29.73F WCI  26
WELLSVILLE     CLOUDY    33  26  75 SW15G30   29.74F WCI  23
ROCHESTER      CLOUDY    39  26  59 S16G24    29.70F WCI  30
PENN YAN       CLOUDY    38  24  57 S18G26    29.77F WCI  28
$$

             KEY
       WCI = WIND CHILL INDEX
       VSB = VISIBILITY
       HX  = HEAT INDEX
$$


USA.gov is the U.S. government's official web portal to all federal, state and local government web resources and services.